Regional Weather Roundup
Issued by NWS Upton, NY

Home | Current Version | Previous Version | Text Only | Print | Product List | Glossary On
Versions: 1 2 3 4 5 6 7 8 9 10 11 12 13 14 15 16 17 18 19 20 21 22 23 24 25 26 27 28 29 30 31 32 33 34 35 36 37 38 39 40 41 42 43 44 45 46 47 48 49 50
000
ASUS41 KOKX 230408
RWROKX

REGIONAL WEATHER ROUNDUP
NATIONAL WEATHER SERVICE NEW YORK NY
1200 AM EDT THU MAR 23 2017

NOTE: "FAIR" INDICATES FEW OR NO CLOUDS BELOW 12,000 FEET WITH NO
SIGNIFICANT WEATHER AND/OR OBSTRUCTIONS TO VISIBILITY.

NYZ071-072-176-178-NJZ106-104-230500-
NEW YORK CITY METRO AREA

CITY           SKY/WX    TMP DP  RH WIND       PRES   REMARKS
Central Park   CLEAR     24  -2  32 NW9       30.47R WCI  14
Wall St Helipt CLEAR     27   5  39 VRB5      30.47R WCI  21
LaGuardia APRT CLEAR     27   4  37 NW21G29   30.45R WCI  13
Kennedy INTL   CLEAR     25  -3  29 NW18G28   30.46R WCI  11
Breezy Point     N/A    N/A N/A N/A NW20G29     N/A
Newark/Liberty CLEAR     25  -1  32 NW12      30.47R WCI  14
Teterboro      CLEAR     25   0  33 NW16G23   30.46R WCI  12
$$

NYZ177-179-078>081-230500-
LONG ISLAND NEW YORK

CITY           SKY/WX    TMP DP  RH WIND       PRES   REMARKS
Jones Beach      N/A    N/A N/A N/A NW22G30     N/A
Matinecock PT    N/A    N/A N/A N/A NW22G29     N/A
Farmingdale    CLEAR     24  -4  29 NW13G21   30.43R WCI  12
MacArthur/ISP  CLEAR     24  -4  29 N16G28    30.40R WCI  11
Shirley        CLEAR     23  -5  29 N18G31    30.42R WCI   9
Westhampton    CLEAR     23  -4  30 NW16G29   30.40R WCI  10
East Hampton     N/A     22  -6  28 NW17G28   30.37R WCI   8
Montauk          N/A     25  -1  32 NW16G23   30.37R WCI  12
$$

NYZ052-065-067-230500-
HUDSON VALLEY

CITY           SKY/WX    TMP DP  RH WIND       PRES   REMARKS
White Plains   CLEAR     22  -2  35 NW16G24   30.40R WCI   8
Newburgh       CLEAR     19   3  49 NW14      30.43R WCI   6
Montgomery     CLEAR     21   1  41 NW7       30.43R WCI  12
Poughkeepsie   CLEAR     20  -1  40 NW7       30.43R WCI  11
Albany         CLEAR     19  -3  38 NW12      30.44S WCI   7
$$

NJZ001-105-106-008-010-013-015-019>022-104-230500-
NEW JERSEY

CITY           SKY/WX    TMP DP  RH WIND       PRES   REMARKS
Newark/Liberty CLEAR     25  -1  32 NW12      30.47R WCI  14
Teterboro      CLEAR     25   0  33 NW16G23   30.46R WCI  12
Caldwell       CLEAR     23   1  38 NW12G22   30.47R WCI  12
Somerville     CLEAR     24   1  36 N13       30.47R WCI  12
Linden           N/A     24  -1  34 NW9G20    30.48R WCI  15
Sussex         CLEAR     20   3  48 NW9       30.45R WCI   9
Andover          N/A     20   2  45 CALM      30.46R
Trenton        CLEAR     24   0  35 N10       30.47S WCI  14
Millville      CLEAR     28  -1  28 N10       30.48R WCI  19
Atlantic City  CLEAR     27  -4  26 N13       30.47R WCI  16
Wrightstown    PTCLDY    25   0  33 NW16G23   30.45R WCI  12
Toms River     CLEAR     25   2  37 NW12      30.47R WCI  14
Belmar         CLEAR     24   2  38 NW16G24   30.46R WCI  11
$$

PAZ047>061-062-071-230500-
EASTERN PENNSYLVANIA

CITY           SKY/WX    TMP DP  RH WIND       PRES   REMARKS
Philadelphia   CLEAR     29  -5  22 N13       30.50R WCI  19
Allentown      CLEAR     24   3  40 NW13      30.49R WCI  12
Scranton       CLEAR     18   4  54 N6        30.46R WCI  10
$$

CTZ002-004>006-009-010-012-RIZ004-006-007-MAZ004-011-015-230500-
SOUTHERN NEW ENGLAND
 IN CT

CITY           SKY/WX    TMP DP  RH WIND       PRES   REMARKS
Bradley INTL   CLEAR     20  -6  31 NW15G21   30.38R WCI   6
Hartford       CLEAR     21  -4  33 NW10G20   30.40R WCI  10
Danbury        CLEAR     20  -2  38 NW8       30.41R WCI  10
Wtrbury/Oxford CLEAR     19  -6  32 N15G25    30.36R WCI   5
Bridgeport     CLEAR     24  -5  27 NW18G25   30.41R WCI  10
Meriden        CLEAR     23  -5  29 NW15      30.39R WCI  10
New Haven      CLEAR     22  -3  33 NW10G22   30.40R WCI  11
Chester          N/A     21  -8  27 NW9G21    30.34R WCI  11
Groton         CLEAR     23  -8  25 NW17G25   30.36R WCI   9
Wilimantic     CLEAR     23  -8  25 N12G22    30.36R WCI  12

 IN RI

CITY           SKY/WX    TMP DP  RH WIND       PRES   REMARKS
Providence     CLEAR     21  -9  26 NW16G29   30.34R WCI   7
Block Island   CLEAR     23  -2  33 N14G24    30.35R WCI  11
Westerly       CLEAR     23  -9  24 NW13G21   30.35R WCI  11
 IN MA

CITY           SKY/WX    TMP DP  RH WIND       PRES   REMARKS
Boston         CLEAR     19  -6  33 NW26G36   30.33R WCI   1
Worcester      CLEAR     14  -9  35 NW13G24   30.27R WCI   0
Westfield      CLEAR     19  -6  33 N15G26    30.36R WCI   5
Provincetown   CLEAR     20   6  55 NW28G38   30.28R WCI   2
Nantucket      CLEAR     22   1  40 NW26G39   30.26R WCI   5
$$

ANZ330-335-338-340-345-350-353-355-230500-
COASTAL MARINE OBSERVATIONS


STATION/POSITION TIME  SKY/WX   TEMP    WIND        PRES    VSBY  WAVE
                                AIR SEA DIR/SP/G                  HT/PER
                 (UTC)          (F)     (DEG/KT/KT) (MB)    (MI)  (FT/S)
NY HARB ENTRANCE 0250            29 41  330/ 21/ 27 1029.6          5/ 5
20 S FIRE ISLAND 0350            28 41  340/ 21/ 27 1029.5          6/ 6
GREAT SOUTH BAY  NOT AVBL
23 SSW MONTAUK P 0250            27 42              1027.6          6/ 5
15 E BARNEGAT LI 0330               42                N/A           5/ 6
HUDSON CANYON    0250            33 45  340/ 25/ 33 1027.6         11/ 8
KINGS POINT      0342            25 38              1030.7
EXECUTION ROCKS  NOT AVBL
CENTRAL LI SOUND 0330            26     310/ 21/ 27   N/A           3/ 4
EASTERN LI SOUND NOT AVBL
ROBBINS REEF     0348            25     320/ 16/ 22 1031.6
$$


>>>>>>>>>>>>>>>>>>>>>>>>>>>> KEY <<<<<<<<<<<<<<<<<<<<<<<<<<<
>                                                          <
>     SKY/WX - Sky Condition/Present Weather               <
>     TMP    - Temperature in Fahrenheit                   <
>     DP     - Dew Point in Fahrenheit                     <
>     RH     - Relative Humidity in Percent                <
>     WIND   - Direction (from) and Speed in MPH           <
>     PRES   - Mean Sea Level Pressure (inches of Hg)      <
>     WCI    - Wind Chill Index                            <
>     VSB    - VISIBILITY IN MILES                         <
>     HX     - HEAT INDEX                                  <
>     TC     - TEMPERATURE IN CELSIUS                      <
>     VRB    - VARIABLE WIND DIRECTION                     <
>                                                          <
>>>>>>>>>>>>>>>>>>>>>>>>>>>> KEY <<<<<<<<<<<<<<<<<<<<<<<<<<<



USA.gov is the U.S. government's official web portal to all federal, state and local government web resources and services.